Regional Weather Roundup
Issued by NWS

Home | Current Version | Previous Version | Text Only | Print | Product List | Glossary Off
Versions: 1 2 3 4 5 6 7 8 9 10 11 12 13 14 15 16 17 18 19 20 21 22 23 24 25 26 27 28 29 30 31 32 33 34 35 36 37 38 39 40 41 42 43 44 45 46 47 48 49 50

000
ASUS43 KLOT 260021
RWRIL

ILLINOIS REGIONAL WEATHER ROUNDUP
NATIONAL WEATHER SERVICE CHICAGO/ROMEOVILLE IL
700 PM CDT SAT APR 25 2015

NOTE: "FAIR" INDICATES FEW OR NO CLOUDS BELOW 12,000 FEET WITH NO
SIGNIFICANT WEATHER AND/OR OBSTRUCTIONS TO VISIBILITY.

* THESE STATIONS ARE NOT UNDER NWS QUALITY CONTROL. THEY ALSO MAY NOT
  REPORT WEATHER SUCH AS PRECIPITATION OR FOG.

ILZ001-002-007-009-015-016-024-260100-
NORTHWEST ILLINOIS

CITY           SKY/WX    TMP DP  RH WIND       PRES   REMARKS
MOLINE         CLOUDY    49  39  68 NE17      29.77R
6HR MIN TEMP:  47; 6HR MAX TEMP:  51;

STERLING*      CLOUDY    46  39  76 NE12G18   29.80R
SAVANNA*       CLOUDY    48  37  66 NE15      29.82R
$$

ILZ003-004-008-010-011-017-018-260100-
NORTH CENTRAL ILLINOIS

CITY           SKY/WX    TMP DP  RH WIND       PRES   REMARKS
ROCKFORD       CLOUDY    46  33  60 NE13      29.86R
6HR MIN TEMP:  45; 6HR MAX TEMP:  51; 6HR PCP:  0.01;

FREEPORT*      CLOUDY    44  35  71 NE12      29.85R
ROCHELLE*      CLOUDY    44  39  82 NE16      29.81R
DE KALB*       CLOUDY    43  38  83 NE13      29.82R
PERU*          CLOUDY    47  41  79 NE14G20   29.77R
$$

ILZ005-006-012>014-019>023-260100-
NORTHEAST ILLINOIS

CITY           SKY/WX    TMP DP  RH WIND       PRES   REMARKS
CHICAGO-OHARE  CLOUDY    42  34  73 NE13      29.81R
6HR MIN TEMP:  42; 6HR MAX TEMP:  48; 6HR PCP:  0.07;

CHICAGO-MIDWAY DRIZZLE   46  39  76 NE14      29.81R
6HR MIN TEMP:  45; 6HR MAX TEMP:  49; 6HR PCP:  0.10;

AURORA         CLOUDY    46  38  73 NE15      29.80R
6HR MIN TEMP:  46; 6HR MAX TEMP:  49; 6HR PCP:  0.04;

LANSING*       CLOUDY    45  40  84 NE10      29.79R
JOLIET*        CLOUDY    47  41  78 NE12      29.78S
WAUKEGAN       CLOUDY    40  30  67 N12G20    29.82R
6HR MIN TEMP:  40; 6HR MAX TEMP:  44; 6HR PCP: TRACE;

DUPAGE AIRPORT CLOUDY    44  37  76 NE12G20   29.81R
6HR MIN TEMP:  43; 6HR MAX TEMP:  48; 6HR PCP:  0.10;

KANKAKEE*      CLOUDY    47  41  80 NE17      29.75R
WHEELING       CLOUDY    42  32  67 NE10      29.83R
6HR MIN TEMP:  42; 6HR MAX TEMP:  46; 6HR PCP:  0.06;

MORRIS*        CLOUDY    46  40  81 NE8       29.75R
ROMEOVILLE*    CLOUDY    45  39  79 NE15      29.79R
NORTHERLY ISL    N/A     41  37  86 N13         N/A
$$

LMZ740>746-260100-
SOUTHERN LAKE MICHIGAN

STATION/POSITION SKY/WX   TEMP    WIND        PRES    VSBY  WAVE
                          AIR SEA DIR/SP/G                  HT/PER
                          (F)     (DEG/KT/KT) (MB)    (MI)  (FT/S)
HARRISON CRIB              40      10/ 17/ 19   N/A
BURNHAM HARBOR             41     360/ 12/ 14   N/A
CALUMET HARBOR             43      10/  9/ 12   N/A
BURNS HARBOR               45      40/ 10/ 14 1008.8R
MICHIGAN CITY              47      40/  6/  8   N/A
MICHIGAN CITY 6N           43 45   20/  6/ 10   N/A           2/ 3
$$

ILZ025>027-034>036-040-047-049-050-058-095>099-260100-
WEST-CENTRAL ILLINOIS

CITY           SKY/WX    TMP DP  RH WIND       PRES   REMARKS
QUINCY         CLOUDY    49  45  86 NE14G24   29.68R
GALESBURG*     CLOUDY    46  44  93 NE18      29.74R FOG
MACOMB*        CLOUDY    47  45  94 NE16      29.74R
JACKSONVILLE*  CLOUDY    51  49  92 N20       29.65R FOG
PITTSFIELD*    CLOUDY    51  48  90 NE13G23   29.66R FOG
$$

ILZ028>032-037-038-041>044-048-051>054-059>061-260100-
CENTRAL ILLINOIS

CITY           SKY/WX    TMP DP  RH WIND       PRES   REMARKS
PONTIAC        CLOUDY    47  45  91 NE20      29.74R
BLOOMINGTON    LGT RAIN  46  45  97 NE17      29.71R FOG
DECATUR        CLOUDY    50  46  86 NE18      29.65R
PEORIA         CLOUDY    49  44  83 NE18G24   29.72R
6HR MIN TEMP:  49; 6HR MAX TEMP:  50;

LACON*         CLOUDY    46  41  84 NE13G21   29.74R
LINCOLN*       CLOUDY    49  45  85 NE20G26   29.67R
SPRINGFIELD    CLOUDY    51  46  83 NE20G29   29.66R
6HR MIN TEMP:  51; 6HR MAX TEMP:  57;

TAYLORVILLE    CLOUDY    50  48  93 NE15      29.63R
$$

ILZ033-039-045-046-055>057-062-063-260100-
EAST-CENTRAL ILLINOIS

CITY           SKY/WX    TMP DP  RH WIND       PRES   REMARKS
CHAMPAIGN      CLOUDY    46  44  93 NE20G28   29.66R FOG
DANVILLE*      CLOUDY    45  42  89 NE16      29.65R
RANTOUL*       CLOUDY    47  44  90 NE16G26   29.68R FOG
MATTOON        CLOUDY    50  47  89 N16       29.60R
PARIS*         CLOUDY    48  46  91 NE10      29.62R
$$

ILZ079-100>102-260100-
SOUTHWEST ILLINOIS

CITY           SKY/WX    TMP DP  RH WIND       PRES   REMARKS
ALTON          CLOUDY    55  54  94 N7        29.60R
BELLEVILLE     DRIZZLE   57  57 100 N6        29.56R
CAHOKIA*       CLOUDY    59  56  89 N9        29.57R
SPARTA*        CLOUDY    59  58  97 N7        29.57R
$$

ILZ064>066-069>071-074>076-080>082-084>086-088>090-092>094-260100-
SOUTH-CENTRAL ILLINOIS

CITY           SKY/WX    TMP DP  RH WIND       PRES   REMARKS
CARBONDALE     PTCLDY    64  58  80 N7        29.54R
6HR MIN TEMP:  61; 6HR MAX TEMP:  77; 6HR PCP:  0.26;

CAIRO*         CLOUDY    68  58  69 N21G30    29.51R
EFFINGHAM*     DRIZZLE   52  50  92 N6        29.60R
MARION         PTCLDY    64  61  88 NW5       29.55R
MT. VERNON     CLOUDY    55  52  88 N6        29.57R
CENTRALIA*     CLOUDY    55  53  92 NE3       29.56R FOG
SALEM*         CLOUDY    56  54  91 N9        29.58R
METROPOLIS*    LGT RAIN  64  61  87 N10       29.53R
$$

ILZ067-068-072-073-078-083-087-091-260100-
SOUTHEAST ILLINOIS

CITY           SKY/WX    TMP DP  RH WIND       PRES   REMARKS
LAWRENCEVILLE  CLOUDY    53  51  93 NE14      29.55R
FLORA*         CLOUDY    54  52  94 NE8       29.56R
FAIRFIELD*     CLOUDY    56  55  95 N9        29.54R
HARRISBURG*    MOCLDY    62  62 100 N5        29.54R
ROBINSON*      LGT RAIN  50  49  96 N10G16    29.58R
CARMI*         CLOUDY    58  54  85 N6        29.52R FOG
$$

ABBREVIATIONS USED IN REMARKS
   TC - TEMPERATURE IN CELSIUS
  WCI - WIND CHILL INDEX
   HX - HEAT INDEX
  VSB - VISIBILITY
$$




USA.gov is the U.S. government's official web portal to all federal, state and local government web resources and services.